Alabaster, AL

1:35 AM CDT on June 28, 2017 (GMT -0500)
Shelby County

Weather History for KEET - October, 2013

Change the Weather History Date:

Thursday, October 17, 2013

  Actual Average Record
Temperature  
Mean Temperature 68 °F 63 °F  
Max Temperature 73 °F 75 °F 89 °F (2007)
Min Temperature 63 °F 52 °F 29 °F (1977)
Degree Days  
Heating Degree Days 0 4  
Month to date heating degree days 0 38  
Since 1 July heating degree days 0 45  
Cooling Degree Days 3 2  
Month to date cooling degree days 119 56  
Year to date cooling degree days 1970 1940  
Growing Degree Days 18 (Base 50)    
Moisture  
Dew Point 66 °F    
Average Humidity 85    
Maximum Humidity 97    
Minimum Humidity 73    
Precipitation  
Precipitation 0.49 in 0.09 in 1.38 in (1975)
Month to date precipitation 1.67 1.63  
Year to date precipitation 51.79 43.54  
Snow  
Snow 0.00 in - - ()
Month to date snowfall 0.0  
Since 1 July snowfall 0.0  
Since 1 September snowfall 0.0  
Snow Depth 0.00 in    
Sea Level Pressure  
Sea Level Pressure 29.95 in    
Wind  
Wind Speed 3 mph (NW)    
Max Wind Speed 13 mph    
Max Gust Speed 16 mph    
Visibility 6 miles    
Events Rain    
T = Trace of Precipitation, MM = Missing Value Source: NWS Daily Summary

Daily Weather History Graph

Daily Weather History Graph

Search for Another Location

Airport or City:

Trip Planner

Search our weather history database for the weather conditions in past years. The results will help you decide how hot, cold, wet, or windy it might be!

Date:

Astronomy

Oct. 17, 2013 Rise Set
Actual Time 6:53 AM CDT 6:11 PM CDT
Civil Twilight 6:28 AM CDT 6:36 PM CDT
Nautical Twilight 5:59 AM CDT 7:04 PM CDT
Astronomical Twilight 5:30 AM CDT 7:33 PM CDT
Moon 5:23 PM CDT (10/17) 5:28 AM CDT (10/17)
Length of Visible Light 12h 07m
Length of Day
11h 17m
Waxing Gibbous, 98% of the Moon is Illuminated
Oct 17
Waxing Gibbous
Oct 18
Full
Oct 26
Last Quarter
Nov 3
New
Nov 9
First Quarter

Hourly Weather History & Observations

Time (CDT) Temp. Dew Point Humidity Pressure Visibility Wind Dir Wind Speed Gust Speed Precip Events Conditions
12:53 AM 69.1 °F 66.9 °F 93% 29.93 in 5.0 mi Calm Calm - 0.00 in Rain Light Rain
1:53 AM 70.0 °F 66.9 °F 90% 29.92 in 6.0 mi Calm Calm - N/A   Overcast
2:53 AM 69.1 °F 66.9 °F 93% 29.91 in 6.0 mi Calm Calm - N/A   Overcast
3:46 AM 69.8 °F 66.2 °F 88% 29.93 in 6.0 mi Calm Calm - 0.00 in   Overcast
3:53 AM 69.1 °F 66.9 °F 93% 29.91 in 5.0 mi Calm Calm - 0.00 in   Overcast
3:59 AM 69.8 °F 66.2 °F 88% 29.93 in 2.5 mi Calm Calm - 0.00 in Rain Light Rain
4:09 AM 69.8 °F 66.2 °F 88% 29.93 in 3.0 mi Calm Calm - 0.01 in Rain Light Rain
4:35 AM 69.8 °F 66.2 °F 88% 29.93 in 3.0 mi Calm Calm - 0.01 in Rain Light Rain
4:42 AM 69.8 °F 66.2 °F 88% 29.93 in 4.0 mi Calm Calm - 0.01 in Rain Light Rain
4:53 AM 69.1 °F 66.9 °F 93% 29.92 in 3.0 mi Calm Calm - 0.01 in Rain Light Rain
5:41 AM 69.8 °F 66.2 °F 88% 29.93 in 2.5 mi Calm Calm - 0.02 in Rain Light Rain
5:43 AM 69.8 °F 66.2 °F 88% 29.93 in 3.0 mi Calm Calm - 0.02 in Rain Light Rain
5:50 AM 69.8 °F 66.2 °F 88% 29.93 in 3.0 mi Calm Calm - 0.02 in Rain Light Rain
5:53 AM 69.1 °F 66.9 °F 93% 29.92 in 3.0 mi Calm Calm - 0.02 in Rain Light Rain
6:02 AM 69.8 °F 66.2 °F 88% 29.93 in 3.0 mi South 3.5 mph - 0.00 in Rain Light Rain
6:20 AM 69.8 °F 66.2 °F 88% 29.93 in 3.0 mi South 3.5 mph - 0.01 in Rain Light Rain
6:27 AM 69.8 °F 66.2 °F 88% 29.93 in 2.5 mi Calm Calm - 0.02 in Rain Light Rain
6:46 AM 69.8 °F 66.2 °F 88% 29.94 in 1.5 mi Calm Calm - 0.07 in Rain Heavy Rain
6:53 AM 69.1 °F 66.9 °F 93% 29.93 in 1.2 mi Calm Calm - 0.12 in Rain Heavy Rain
7:10 AM 69.8 °F 66.2 °F 88% 29.94 in 2.0 mi Calm Calm - 0.07 in Rain Heavy Rain
7:36 AM 69.8 °F 66.2 °F 88% 29.94 in 3.0 mi Calm Calm - 0.12 in Rain Light Rain
7:53 AM 70.0 °F 68.0 °F 93% 29.93 in 5.0 mi Calm Calm - 0.12 in   Overcast
8:04 AM 69.8 °F 66.2 °F 88% 29.94 in 6.0 mi Calm Calm - 0.00 in Rain Light Rain
8:46 AM 69.8 °F 68.0 °F 94% 29.95 in 2.0 mi Calm Calm - 0.02 in Rain Rain
8:53 AM 70.0 °F 66.9 °F 90% 29.94 in 0.8 mi Calm Calm - 0.07 in Rain Heavy Rain
9:02 AM 69.8 °F 68.0 °F 94% 29.96 in 0.8 mi Calm Calm - 0.05 in Rain Heavy Rain
9:08 AM 69.8 °F 68.0 °F 94% 29.96 in 2.0 mi Calm Calm - 0.05 in Rain Light Rain
9:16 AM 69.8 °F 68.0 °F 94% 29.96 in 2.5 mi Calm Calm - 0.06 in Rain Light Rain
9:30 AM 69.8 °F 68.0 °F 94% 29.96 in 1.0 mi Calm Calm - 0.10 in Rain Heavy Rain
9:48 AM 69.8 °F 68.0 °F 94% 29.96 in 3.0 mi Calm Calm - 0.13 in Rain Light Rain
9:53 AM 70.0 °F 68.0 °F 93% 29.95 in 5.0 mi Calm Calm - 0.13 in Rain Light Rain
10:15 AM 71.6 °F 68.0 °F 88% 29.96 in 10.0 mi Calm Calm - 0.00 in   Overcast
10:41 AM 71.6 °F 68.0 °F 88% 29.97 in 6.0 mi West 4.6 mph - 0.01 in Rain Light Rain
10:53 AM 71.1 °F 68.0 °F 90% 29.96 in 4.0 mi Calm Calm - 0.01 in Rain Light Rain
10:56 AM 71.6 °F 68.0 °F 88% 29.97 in 2.5 mi NW 4.6 mph - 0.00 in Rain Light Rain
11:02 AM 69.8 °F 68.0 °F 94% 29.97 in 1.5 mi NW 6.9 mph - 0.01 in Rain Light Rain
11:23 AM 71.6 °F 68.0 °F 88% 29.96 in 3.0 mi NW 4.6 mph - 0.01 in   Overcast
11:51 AM 69.8 °F 66.2 °F 88% 29.96 in 10.0 mi WNW 5.8 mph - 0.01 in   Overcast
11:53 AM 70.0 °F 66.9 °F 90% 29.95 in 10.0 mi NW 6.9 mph - 0.01 in   Overcast
12:45 PM 71.6 °F 66.2 °F 83% 29.95 in 10.0 mi Variable 3.5 mph - N/A   Overcast
12:53 PM 72.0 °F 66.9 °F 84% 29.93 in 10.0 mi Variable 5.8 mph - N/A   Overcast
1:10 PM 71.6 °F 66.2 °F 83% 29.94 in 10.0 mi NW 5.8 mph - N/A   Overcast
1:32 PM 71.6 °F 64.4 °F 78% 29.94 in 10.0 mi Variable 5.8 mph - N/A   Overcast
1:53 PM 72.0 °F 64.9 °F 78% 29.92 in 10.0 mi NW 5.8 mph - N/A   Overcast
2:53 PM 71.1 °F 63.0 °F 75% 29.92 in 10.0 mi NW 9.2 mph - N/A   Overcast
3:53 PM 70.0 °F 62.1 °F 76% 29.92 in 10.0 mi NNW 5.8 mph - N/A   Overcast
4:53 PM 68.0 °F 61.0 °F 78% 29.94 in 10.0 mi NW 4.6 mph - N/A   Overcast
5:53 PM 66.9 °F 61.0 °F 81% 29.95 in 10.0 mi NW 3.5 mph - N/A   Overcast
6:53 PM 66.0 °F 60.1 °F 81% 29.96 in 10.0 mi NW 5.8 mph - N/A   Overcast
7:53 PM 64.0 °F 60.1 °F 87% 29.97 in 10.0 mi NW 5.8 mph - N/A   Overcast
8:53 PM 63.0 °F 60.1 °F 90% 29.98 in 10.0 mi WNW 4.6 mph - N/A   Overcast
9:53 PM 64.9 °F 59.0 °F 81% 29.99 in 10.0 mi NW 4.6 mph - N/A   Overcast
10:08 PM 64.4 °F 59.0 °F 83% 30.00 in 10.0 mi NW 3.5 mph - N/A   Overcast
10:53 PM 64.0 °F 60.1 °F 87% 29.99 in 10.0 mi Variable 3.5 mph - N/A   Overcast
11:53 PM 64.0 °F 59.0 °F 84% 29.98 in 10.0 mi NNW 4.6 mph - N/A   Overcast